C6042 KPIE-KPIE

Flight info

Callsign C6042
Flight time 0h 21m
Altitude 1000
Route /
Aircraft H60/M-GV/L

Departure

Time 2026-04-30 02:56
Airport St. Petersburg Clearwater International Airport (KPIE)

Arrival

Time 2026-04-30 03:17
Airport St. Petersburg Clearwater International Airport (KPIE)
Time Latitude Longitude Altitude Speed Heading
2026-04-30 02:47 27.91298 -82.69467 21 ft 0 kts 111°
2026-04-30 02:52 27.91299 -82.69467 19 ft 0 kts 111°
2026-04-30 02:52 27.91298 -82.69467 19 ft 0 kts 111°
2026-04-30 02:52 27.91299 -82.69467 20 ft 0 kts 133°
2026-04-30 02:53 27.91298 -82.69466 20 ft 0 kts 140°
2026-04-30 02:53 27.91298 -82.69465 20 ft 0 kts 140°
2026-04-30 02:53 27.91292 -82.69459 20 ft 2 kts 136°
2026-04-30 02:53 27.91281 -82.69443 21 ft 3 kts 116°
2026-04-30 02:54 27.91271 -82.69421 21 ft 3 kts 120°
2026-04-30 02:54 27.91253 -82.69399 20 ft 4 kts 145°
2026-04-30 02:54 27.91223 -82.69386 21 ft 3 kts 123°
2026-04-30 02:54 27.91221 -82.69363 21 ft 3 kts 116°
2026-04-30 02:55 27.91221 -82.69361 21 ft 0 kts 127°
2026-04-30 02:55 27.91221 -82.69358 30 ft 3 kts 98°
2026-04-30 02:55 27.91313 -82.69238 87 ft 37 kts 41°
2026-04-30 02:56 27.91550 -82.69014 237 ft 52 kts 44°
2026-04-30 02:56 27.91868 -82.68727 419 ft 64 kts 40°
2026-04-30 02:56 27.92241 -82.68412 682 ft 71 kts 33°
2026-04-30 02:56 27.92642 -82.68040 782 ft 83 kts 45°
2026-04-30 02:57 27.92905 -82.67356 521 ft 106 kts 66°
2026-04-30 02:57 27.93119 -82.66515 359 ft 114 kts 77°
2026-04-30 02:57 27.93121 -82.65605 341 ft 116 kts 93°
2026-04-30 02:57 27.93003 -82.64709 495 ft 119 kts 91°
2026-04-30 02:58 27.92881 -82.63751 429 ft 121 kts 96°
2026-04-30 02:58 27.92795 -82.62881 784 ft 103 kts 98°
2026-04-30 02:58 27.92692 -82.62097 1023 ft 99 kts 102°
2026-04-30 02:58 27.92564 -82.61328 1118 ft 101 kts 105°
2026-04-30 02:59 27.92404 -82.60548 1157 ft 104 kts 107°
2026-04-30 02:59 27.92199 -82.59706 917 ft 118 kts 108°
2026-04-30 02:59 27.91951 -82.58806 722 ft 118 kts 110°
2026-04-30 02:59 27.91691 -82.57955 708 ft 110 kts 111°
2026-04-30 03:00 27.91432 -82.57177 790 ft 102 kts 113°
2026-04-30 03:00 27.91229 -82.56431 941 ft 98 kts 107°
2026-04-30 03:00 27.91093 -82.55677 994 ft 99 kts 102°
2026-04-30 03:00 27.91010 -82.54893 816 ft 103 kts 98°
2026-04-30 03:01 27.90945 -82.54080 704 ft 104 kts 94°
2026-04-30 03:01 27.90900 -82.53272 630 ft 102 kts 95°
2026-04-30 03:01 27.90874 -82.52484 573 ft 99 kts 92°
2026-04-30 03:01 27.90867 -82.51727 503 ft 96 kts 92°
2026-04-30 03:02 27.90874 -82.51230 642 ft 90 kts 89°
2026-04-30 03:02 27.90926 -82.50488 668 ft 103 kts 79°
2026-04-30 03:02 27.91172 -82.49709 584 ft 105 kts 60°
2026-04-30 03:02 27.91697 -82.48839 640 ft 98 kts 51°
2026-04-30 03:03 27.91972 -82.48433 639 ft 96 kts 50°
2026-04-30 03:03 27.92828 -82.47313 477 ft 83 kts 44°
2026-04-30 03:03 27.93149 -82.46932 424 ft 54 kts 44°
2026-04-30 03:04 27.93379 -82.46643 330 ft 49 kts 42°
2026-04-30 03:04 27.93599 -82.46401 238 ft 37 kts 42°
2026-04-30 03:04 27.93731 -82.46237 170 ft 21 kts 49°
2026-04-30 03:04 27.93822 -82.46148 123 ft 11 kts 47°
2026-04-30 03:05 27.93887 -82.46074 85 ft 11 kts 45°
2026-04-30 03:05 27.93911 -82.46014 43 ft 4 kts 53°
2026-04-30 03:05 27.93916 -82.45980 33 ft 5 kts 73°
2026-04-30 03:05 27.93918 -82.45961 26 ft 2 kts 46°
2026-04-30 03:06 27.93925 -82.45952 18 ft 1 kts 56°
2026-04-30 03:06 27.93928 -82.45946 12 ft 0 kts 225°
2026-04-30 03:07 27.93822 -82.46100 91 ft 56 kts 212°
2026-04-30 03:08 27.93520 -82.45738 341 ft 90 kts 61°
2026-04-30 03:08 27.93912 -82.45662 432 ft 39 kts 297°
2026-04-30 03:08 27.94050 -82.45896 265 ft 17 kts 206°
2026-04-30 03:08 27.93991 -82.45949 83 ft 22 kts 161°
2026-04-30 03:09 27.93935 -82.45955 20 ft 2 kts 179°
2026-04-30 03:09 27.93926 -82.45950 14 ft 1 kts 211°
2026-04-30 03:09 27.93924 -82.45951 14 ft 1 kts 221°
2026-04-30 03:09 27.93760 -82.46148 110 ft 79 kts 198°
2026-04-30 03:10 27.93012 -82.46154 315 ft 135 kts 185°
2026-04-30 03:10 27.91995 -82.46180 510 ft 151 kts 185°
2026-04-30 03:10 27.90943 -82.46187 798 ft 151 kts 183°
2026-04-30 03:10 27.89906 -82.46161 1042 ft 152 kts 183°
2026-04-30 03:11 27.88826 -82.46102 1107 ft 156 kts 181°
2026-04-30 03:11 27.87727 -82.45963 993 ft 160 kts 180°
2026-04-30 03:11 27.86618 -82.46309 556 ft 180 kts 209°
2026-04-30 03:11 27.85541 -82.46972 492 ft 170 kts 218°
2026-04-30 03:12 27.84758 -82.47951 614 ft 168 kts 236°
2026-04-30 03:12 27.84010 -82.48906 872 ft 156 kts 228°
2026-04-30 03:12 27.83152 -82.49592 1257 ft 146 kts 217°
2026-04-30 03:12 27.82412 -82.50359 933 ft 150 kts 234°
2026-04-30 03:13 27.81975 -82.51437 615 ft 149 kts 256°
2026-04-30 03:13 27.81868 -82.52606 172 ft 151 kts 272°
2026-04-30 03:13 27.81919 -82.53781 443 ft 153 kts 274°
2026-04-30 03:13 27.82319 -82.54899 536 ft 158 kts 301°
2026-04-30 03:14 27.82907 -82.55956 705 ft 157 kts 303°
2026-04-30 03:14 27.83521 -82.56991 881 ft 161 kts 304°
2026-04-30 03:14 27.84196 -82.58054 768 ft 170 kts 305°
2026-04-30 03:14 27.84841 -82.59170 694 ft 170 kts 302°
2026-04-30 03:15 27.85460 -82.60297 690 ft 167 kts 302°
2026-04-30 03:15 27.86114 -82.61371 752 ft 166 kts 307°
2026-04-30 03:15 27.86775 -82.62387 859 ft 155 kts 305°
2026-04-30 03:15 27.87398 -82.63354 859 ft 150 kts 303°
2026-04-30 03:16 27.88000 -82.64298 866 ft 147 kts 304°
2026-04-30 03:16 27.88579 -82.65238 879 ft 144 kts 303°
2026-04-30 03:16 27.89169 -82.66152 892 ft 144 kts 309°
2026-04-30 03:16 27.89803 -82.67028 837 ft 144 kts 309°
2026-04-30 03:17 27.90410 -82.67825 628 ft 117 kts 311°
2026-04-30 03:17 27.90871 -82.68410 552 ft 84 kts 306°
2026-04-30 03:17 27.91055 -82.68876 400 ft 49 kts 275°
2026-04-30 03:17 27.91069 -82.69117 155 ft 21 kts 287°
2026-04-30 03:18 27.91096 -82.69179 47 ft 1 kts 305°
2026-04-30 03:18 27.91096 -82.69186 33 ft 1 kts 301°
2026-04-30 03:18 27.91103 -82.69201 29 ft 4 kts 302°
2026-04-30 03:18 27.91111 -82.69215 25 ft 2 kts 299°
2026-04-30 03:19 27.91116 -82.69225 26 ft 3 kts 306°
2026-04-30 03:19 27.91124 -82.69235 25 ft 1 kts 309°
2026-04-30 03:19 27.91130 -82.69246 23 ft 3 kts 306°
2026-04-30 03:19 27.91132 -82.69250 20 ft 0 kts 304°
2026-04-30 03:20 27.91134 -82.69254 21 ft 3 kts 304°
2026-04-30 03:20 27.91153 -82.69278 20 ft 5 kts 316°
2026-04-30 03:20 27.91188 -82.69315 20 ft 8 kts 317°
2026-04-30 03:20 27.91228 -82.69357 21 ft 7 kts 310°
2026-04-30 03:21 27.91254 -82.69395 21 ft 5 kts 309°
2026-04-30 03:21 27.91273 -82.69420 20 ft 3 kts 310°
2026-04-30 03:21 27.91286 -82.69446 20 ft 4 kts 294°
2026-04-30 03:21 27.91296 -82.69466 20 ft 3 kts 314°
2026-04-30 03:22 27.91301 -82.69473 20 ft 0 kts 315°